Date String (YYYY-MM-DD hh:mm:ss) UTC,Instrument flags,Ambient pressure (hPa),Sample flow (lpm),Bypass flow (lpm),Sample temperature (°C),Ambient temperature (°C),ASC tube jacket temperature (°C),LED temperature (°C),Box temperature (°C),Sample RH (%),Span deviation,Mass concentration (μg/m³),Mass concentration (μg/m³),Mass concentration (μg/m³)
DateTimeUTC,F1_M11,P_M11,Q1_M11,Q2_M11,T1_M11,T2_M11,T3_M11,T4_M11,T5_M11,U1_M11,ZSPAN_M11,X2_M11,X0_M11,X1_M11
2022-11-20 02:00:00,,0830.2,4.99,0.00,24.4,22.6,00.0,33.5,26.2,09.1,0000.0,0005.65,0010.49,0005.03
2022-11-20 02:01:00,,0830.2,5.01,0.00,24.4,22.6,00.0,33.5,26.2,09.1,0000.0,0005.65,0010.42,0005.03
2022-11-20 02:02:00,,0830.2,4.99,0.00,24.3,22.5,00.0,33.4,26.2,09.1,0000.0,0005.62,0009.66,0005.04
2022-11-20 02:03:00,,0830.2,5.02,0.00,24.3,22.4,00.0,33.4,26.1,09.2,0000.0,0005.64,0010.04,0005.08
2022-11-20 02:04:00,,0830.2,4.98,0.00,24.3,22.4,00.0,33.4,26.1,09.2,0000.0,0005.70,0010.61,0005.13
2022-11-20 02:05:00,,0830.1,5.02,0.00,24.3,22.3,00.0,33.4,26.1,09.2,0000.0,0005.77,0010.81,0005.18
2022-11-20 02:06:00,,0830.1,4.99,0.00,24.2,22.3,00.0,33.4,26.0,09.2,0000.0,0005.87,0011.46,0005.25
2022-11-20 02:07:00,,0830.1,4.99,0.00,24.2,22.2,00.0,33.3,26.0,09.2,0000.0,0005.94,0011.80,0005.30
2022-11-20 02:08:00,,0830.1,5.01,0.00,24.2,22.2,00.0,33.3,26.0,09.3,0000.0,0005.94,0011.76,0005.35
2022-11-20 02:09:00,,0830.2,5.00,0.00,24.1,22.1,00.0,33.3,25.9,09.3,0000.0,0006.07,0012.17,0005.44
2022-11-20 02:10:00,,0830.2,4.99,0.00,24.1,22.1,00.0,33.3,25.9,09.3,0000.0,0006.19,0012.49,0005.50
2022-11-20 02:11:00,,0830.2,5.01,0.00,24.1,22.0,00.0,33.2,25.9,09.3,0000.0,0006.24,0012.60,0005.57
2022-11-20 02:12:00,,0830.2,4.99,0.00,24.0,22.0,00.0,33.2,25.8,09.3,0000.0,0006.30,0012.70,0005.64
2022-11-20 02:13:00,,0830.2,5.00,0.00,24.0,22.0,00.0,33.2,25.7,09.3,0000.0,0006.35,0012.79,0005.70
2022-11-20 02:14:00,,0830.2,5.01,0.00,24.0,22.0,00.0,33.1,25.7,09.3,0000.0,0006.39,0012.82,0005.76
2022-11-20 02:15:00,,0830.3,4.99,0.00,24.0,21.9,00.0,33.1,25.7,09.3,0000.0,0006.42,0012.75,0005.79
2022-11-20 02:16:00,,0830.3,5.01,0.00,24.0,21.9,00.0,33.1,25.6,09.4,0000.0,0006.43,0012.62,0005.81
2022-11-20 02:17:00,,0830.3,5.01,0.00,23.9,21.9,00.0,33.1,25.6,09.4,0000.0,0006.41,0012.38,0005.83
2022-11-20 02:18:00,,0830.3,4.98,0.00,23.9,21.9,00.0,33.0,25.6,09.4,0000.0,0006.40,0012.11,0005.85
2022-11-20 02:19:00,,0830.3,5.02,0.00,23.9,21.9,00.0,33.0,25.6,09.4,0000.0,0006.48,0012.63,0005.89
2022-11-20 02:20:00,,0830.4,4.99,0.00,23.9,21.9,00.0,33.0,25.6,09.5,0000.0,0006.45,0012.63,0005.89
2022-11-20 02:21:00,,0830.4,4.99,0.00,23.8,21.8,00.0,32.9,25.6,09.5,0000.0,0006.40,0012.91,0005.88
2022-11-20 02:22:00,,0830.4,5.00,0.00,23.8,21.8,00.0,32.9,25.5,09.5,0000.0,0006.39,0013.33,0005.87
2022-11-20 02:23:00,,0830.4,5.01,0.00,23.8,21.8,00.0,32.9,25.5,09.6,0000.0,0006.42,0013.45,0005.87
2022-11-20 02:24:00,,0830.4,5.01,0.00,23.8,21.7,00.0,32.9,25.5,09.6,0000.0,0006.45,0013.60,0005.86
2022-11-20 02:25:00,,0830.4,4.98,0.00,23.7,21.7,00.0,32.8,25.5,09.7,0000.0,0006.44,0013.29,0005.84
2022-11-20 02:26:00,,0830.4,5.01,0.00,23.7,21.7,00.0,32.8,25.5,09.7,0000.0,0006.45,0012.94,0005.83
2022-11-20 02:27:00,,0830.4,5.00,0.00,23.7,21.7,00.0,32.8,25.4,09.7,0000.0,0006.45,0012.96,0005.82
2022-11-20 02:28:00,,0830.4,5.00,0.00,23.6,21.7,00.0,32.8,25.4,09.7,0000.0,0006.43,0013.02,0005.79
2022-11-20 02:29:00,,0830.4,5.02,0.00,23.6,21.6,00.0,32.7,25.3,09.8,0000.0,0006.39,0013.81,0005.75
2022-11-20 02:30:00,,0830.5,4.98,0.00,23.6,21.6,00.0,32.7,25.3,09.8,0000.0,0006.31,0013.29,0005.71
2022-11-20 02:31:00,,0830.5,5.02,0.00,23.6,21.7,00.0,32.7,25.3,09.8,0000.0,0006.31,0013.06,0005.70
2022-11-20 02:32:00,,0830.5,4.99,0.00,23.5,21.6,00.0,32.7,25.3,09.8,0000.0,0006.32,0012.56,0005.70
2022-11-20 02:33:00,,0830.5,5.00,0.00,23.5,21.6,00.0,32.6,25.3,09.8,0000.0,0006.35,0012.08,0005.72
2022-11-20 02:34:00,,0830.5,5.01,0.00,23.5,21.6,00.0,32.6,25.2,09.8,0000.0,0006.32,0012.38,0005.71
2022-11-20 02:35:00,,0830.6,5.01,0.00,23.5,21.6,00.0,32.6,25.2,09.8,0000.0,0006.33,0013.04,0005.71
2022-11-20 02:36:00,,0830.5,5.00,0.00,23.4,21.5,00.0,32.6,25.2,09.8,0000.0,0006.35,0013.08,0005.73
2022-11-20 02:37:00,,0830.5,4.99,0.00,23.4,21.5,00.0,32.5,25.2,09.8,0000.0,0006.36,0013.07,0005.75
2022-11-20 02:38:00,,0830.6,5.01,0.00,23.4,21.5,00.0,32.5,25.1,09.8,0000.0,0006.36,0013.04,0005.78
2022-11-20 02:39:00,,0830.6,5.00,0.00,23.4,21.5,00.0,32.5,25.1,09.7,0000.0,0006.36,0012.87,0005.80
2022-11-20 02:40:00,,0830.6,5.00,0.00,23.4,21.4,00.0,32.5,25.0,09.7,0000.0,0006.35,0011.74,0005.81
2022-11-20 02:41:00,,0830.6,5.00,0.00,23.3,21.4,00.0,32.5,25.0,09.7,0000.0,0006.37,0011.74,0005.82
2022-11-20 02:42:00,,0830.6,5.00,0.00,23.3,21.4,00.0,32.4,25.0,09.7,0000.0,0006.33,0011.88,0005.81
2022-11-20 02:43:00,,0830.6,5.00,0.00,23.3,21.4,00.0,32.4,25.0,09.7,0000.0,0006.31,0011.90,0005.80
2022-11-20 02:44:00,,0830.6,4.98,0.00,23.3,21.4,00.0,32.4,25.1,09.7,0000.0,0006.31,0012.29,0005.78
2022-11-20 02:45:00,,0830.6,5.01,0.00,23.3,21.3,00.0,32.4,25.0,09.6,0000.0,0006.24,0012.18,0005.74
2022-11-20 02:46:00,,0830.6,4.99,0.00,23.3,21.3,00.0,32.3,25.0,09.7,0000.0,0006.20,0011.54,0005.71
2022-11-20 02:47:00,,0830.6,5.00,0.00,23.2,21.3,00.0,32.3,25.0,09.7,0000.0,0006.16,0011.97,0005.68
2022-11-20 02:48:00,,0830.6,5.00,0.00,23.2,21.3,00.0,32.3,25.0,09.7,0000.0,0006.13,0011.96,0005.66
2022-11-20 02:49:00,,0830.7,4.99,0.00,23.2,21.3,00.0,32.3,25.0,09.7,0000.0,0006.11,0011.93,0005.64
2022-11-20 02:50:00,,0830.6,4.99,0.00,23.2,21.3,00.0,32.3,24.9,09.7,0000.0,0006.12,0012.00,0005.63
2022-11-20 02:51:00,,0830.6,5.02,0.00,23.2,21.2,00.0,32.2,24.9,09.7,0000.0,0006.13,0012.03,0005.63
2022-11-20 02:52:00,,0830.6,4.99,0.00,23.2,21.2,00.0,32.2,24.9,09.7,0000.0,0006.14,0012.11,0005.61
2022-11-20 02:53:00,,0830.6,4.99,0.00,23.1,21.2,00.0,32.2,24.9,09.8,0000.0,0006.15,0011.89,0005.61
2022-11-20 02:54:00,,0830.6,5.01,0.00,23.1,21.2,00.0,32.2,24.9,09.8,0000.0,0006.13,0011.77,0005.61
2022-11-20 02:55:00,,0830.6,5.01,0.00,23.1,21.1,00.0,32.1,24.8,09.8,0000.0,0006.13,0011.36,0005.60
2022-11-20 02:56:00,,0830.6,5.00,0.00,23.1,21.1,00.0,32.1,24.8,09.8,0000.0,0006.16,0010.98,0005.62
2022-11-20 02:57:00,,0830.6,4.99,0.00,23.0,21.1,00.0,32.1,24.8,09.8,0000.0,0006.13,0010.77,0005.62
2022-11-20 02:58:00,,0830.6,5.02,0.00,23.0,21.2,00.0,32.1,24.8,09.8,0000.0,0006.10,0010.07,0005.60
2022-11-20 02:59:00,,0830.6,4.98,0.00,23.0,21.2,00.0,32.1,24.8,09.8,0000.0,0006.05,0010.10,0005.57
